Location: Kapuskasing
(49.3803°N, 82.4001°W)
Time: 08:54:56
(UTC-04:00)

ACS3 Solar Sail - Visible Passes

Search period start: 03 October 2024 00:00
Search period end: 13 October 2024 00:00
Orbit: 963 x 1037 km, 97.4° (Epoch: 02 October)

Date Brightness Start Highest point End Pass type
(mag) Time Alt. Az. Time Alt. Az. Time Alt. Az.
03 Oct 2.6 20:12:49 13° ESE 20:17:50 34° ENE 20:23:26 10° N visible
03 Oct 2.5 21:58:01 26° SSW 22:01:33 53° W 22:07:47 10° NNW visible
04 Oct 2.0 20:45:30 21° SE 20:49:46 54° ENE 20:55:56 10° N visible
04 Oct 3.3 22:30:41 20° SW 22:34:00 32° W 22:39:38 10° NNW visible
05 Oct 3.2 19:34:18 10° E 19:38:43 20° NE 19:43:07 10° N visible
05 Oct 1.8 21:18:10 28° SSE 21:21:52 87° ENE 21:28:15 10° NNW visible
05 Oct 4.0 23:03:21 13° WSW 23:06:37 19° W 23:10:58 10° NW visible
06 Oct 2.6 20:05:39 13° ESE 20:10:28 32° ENE 20:15:54 10° N visible
06 Oct 2.4 21:50:50 29° SSW 21:54:07 57° W 22:00:23 10° NNW visible
06 Oct 4.6 23:39:09 10° W 23:39:26 10° WNW 23:39:43 10° WNW visible
07 Oct 2.1 20:38:19 21° SE 20:42:22 50° ENE 20:48:27 10° N visible
07 Oct 3.2 22:23:31 23° SW 22:26:31 34° W 22:32:14 10° NNW visible
08 Oct 3.2 19:27:11 10° E 19:31:22 19° NE 19:35:31 10° NNE visible
08 Oct 1.8 21:11:00 30° SSE 21:14:26 82° ENE 21:20:47 10° N visible
08 Oct 3.9 22:56:11 15° WSW 22:59:07 20° W 23:03:41 10° NW visible
09 Oct 2.7 19:58:28 13° ESE 20:03:05 29° ENE 20:08:22 10° N visible
09 Oct 2.2 21:43:40 32° SSW 21:46:40 62° W 21:52:56 10° NNW visible
09 Oct 4.5 23:30:10 10° W 23:31:54 11° W 23:33:37 10° WNW visible
10 Oct 2.1 20:31:08 22° SE 20:34:58 47° ENE 20:40:56 10° N visible
10 Oct 3.1 22:16:20 26° SW 22:19:02 37° W 22:24:51 10° NNW visible
11 Oct 3.3 19:20:04 10° E 19:24:00 17° NE 19:27:54 10° NNE visible
11 Oct 1.7 21:03:49 32° SSE 21:07:00 76° ENE 21:13:18 10° N visible
11 Oct 3.8 22:49:00 17° WSW 22:51:35 22° W 22:56:21 10° NW visible
12 Oct 2.8 19:51:17 13° ESE 19:55:41 27° ENE 20:00:49 10° N visible
12 Oct 2.1 21:36:28 36° S 21:39:12 67° W 21:45:28 10° NNW visible
12 Oct 4.4 23:21:56 10° WSW 23:24:20 12° W 23:26:44 10° WNW visible
